Weather in Neteshin

Ukraine / Khmelnitsky District     50°20′16″N   26°38′20″E
temp.,
°C
wind,
m/s
gust,
m/s
humid.,
%
clouds,
%
prec.,
mm/h
press.,
hPa
HPBL,
m
11 may, tue
tue1100:00+10se37860 0.0 1022122
03:00+9se39860 0.0 1022165
06:00+7se38860 0.0 1022162
09:00+13se47600 0.0 1022469
12:00+17ese45410 0.0 10211159
15:00+19se45360 0.0 10191371
18:00+19ese46530 0.0 10181232
21:00+13e38820 0.0 1018155
12 may, wed
wed1200:00+11ese39890 0.0 1017167
03:00+10ese36960 0.0 1016120
06:00+10e499998 0.0 1016305
09:00+12ese79680 0.0 1016709
12:00+15ese67525 0.0 10151404
15:00+14ese785344 0.0 10151543
18:00+11ese676476 0.0 10141266
21:00+10se4863100 0.0 1013830
13 may, thu
thu1300:00+7sse258046 0.0 1012112
03:00+5se310858 0.0 1010213
06:00+5se311835 0.0 1008249
09:00+10se61276100 0.0 1007640
12:00+12sse71177100 0.0 1006945
15:00+16sse6116999 0.0 10051354
18:00+17sse61167100 0.1 10051216
21:00+12sse61284100 0.1 1006608
14 may, fri
fri1400:00+11sse51089100 0.1 1006531
03:00+11sse3897100 0.9 1006402
06:00+11s2598100 1.0 1006200
09:00+13s358799 1.3 1007305
12:00+18s4561100 1.0 10071276
15:00+19sw466283 3.0 10071338
18:00+18wsw347196 1.9 1008824
21:00+13wnw3888100 3.1 1009199
15 may, sat
sat1500:00+11w2589100 0.0 101092
03:00+8w389694 0.0 1011186
06:00+7w269445 0.0 1012126
09:00+13wsw47755 0.0 1012629
12:00+17w585498 0.0 10121795
15:00+17w4757100 0.0 10121410
18:00+17wnw466031 0.0 10121358
21:00+12nw3483100 0.0 101359